Regional Weather Roundup
Issued by NWS Newport/Morehead, NC

Current Version | Previous Version | Text Only | Print | Product List | Glossary Off
Versions: 1 2 3 4 5 6 7 8 9 10 11 12 13 14 15 16 17 18 19 20 21 22 23 24 25 26 27 28 29 30 31 32 33 34 35 36 37 38 39 40 41 42 43 44 45 46 47 48 49 50

000
ASUS42 KMHX 280327
RWRMHX
WEATHER ROUNDUP FOR EASTERN NORTH CAROLINA
NATIONAL WEATHER SERVICE NEWPORT/MOREHEAD CITY NC
1100 PM EDT FRI MAR 27 2015

NOTE: "FAIR" INDICATES FEW OR NO CLOUDS BELOW 12,000 FEET
WITH NO SIGNIFICANT WEATHER AND/OR OBSTRUCTIONS TO VISIBILITY

NCZ015>017-031-032-045>047-102-103-280400-
NORTH COAST

CITY           SKY/WX    TMP DP  RH WIND       PRES   REMARKS
EDENTON        CLOUDY    40  38  91 N9        29.79R
ELIZABETH CITY CLOUDY    41  37  87 N10       29.77F
KITTY HAWK     CLOUDY    39  38  95 N13G22    29.73F FOG
MANTEO         CLOUDY    39  38  94 N21G30    29.74F

$$

NCZ045>047-081-094-103-104-280400-
CENTRAL COAST

CITY           SKY/WX    TMP DP  RH WIND       PRES   REMARKS
FRISCO         CLOUDY    43  39  86 N14G26    29.71F
SWANQUARTER      N/A     43 N/A N/A VRB6G20   29.71S

$$

NCZ095-097-098-100-101-280400-
SOUTHERN COAST

CITY           SKY/WX    TMP DP  RH WIND       PRES   REMARKS
BEAUFORT       CLOUDY    44  41  89 N15       29.75S
CEDAR ISLAND     N/A     46 N/A N/A N17G30    29.77S
JACKSONVILLE   CLOUDY    44  38  79 N10       29.78R
PINEY ISLAND   CLOUDY   N/A N/A N/A N23G30    29.74R
WILMINGTON     CLOUDY    44  40  85 N7        29.81R


$$

NCZ011>013-027>030-043-044-078>080-089-090>093-098-280400-
COASTAL PLAIN

CITY           SKY/WX    TMP DP  RH WIND       PRES   REMARKS
AHOSKIE        CLOUDY    39  38  95 CALM      29.80S
CLINTON        CLOUDY    43  41  91 N5        29.82S
ELIZABETHTOWN  MOCLDY    44  41  90 CALM      29.83R
GOLDSBORO      CLOUDY    43  42  98 N6        29.79S
GREENVILLE     CLOUDY    41  37  87 N5        29.83R
HAVELOCK       CLOUDY    44  40  85 N13       29.78R
KENANSVILLE    CLOUDY    42  39  88 N5        29.82R
KINSTON        CLOUDY    42  38  83 N8        29.81R
NEW BERN       CLOUDY    43  39  86 N8        29.79R
RICHLANDS      CLOUDY    43  36  75 NW3       29.80S
ROCKY MOUNT    CLOUDY    42  37  82 NW9       29.81R
WASHINGTON     CLOUDY    42  39  89 N7        29.79R
WHITEVILLE     CLOUDY    45  41  87 CALM      29.83R

$$

AMZ130-135-150-152-154-156-158-170-250-252-270-ANZ085-086-088-633-658-670-280400-
MARINE OBSERVATIONS

STATION/POSITION TIME  TEMP    WIND        PRES    WAVE   SWELL
                       AIR SEA DIR/SP/G            HT/PER HT/PER
                 (UTC) (F)     (DEG/KT/KT) (MB)    (FT/S) (FT/S)
CHESAPEAKE LIGHT 0300   40      10/ 15/ 17 1008.4
64 E VA BEACH    0250   44 56  350/ 25/ 29 1005.1    9/ 7
DUCK             0200           10/ 22/ 25 1006.4
2 E DUCK         0311      41                N/A     7/ 6   2/11
10 NE DUCK       NOT AVBL
OREGON INLET     0300   39 48  350/ 17/ 23 1006.7
HATTERAS CG      0212   46 57   10/ 23/ 27 1006.1
CAPE LOOKOUT     0300   44     360/ 17/ 22 1006.5
BEAUFORT LAB     0212   44 58  360/ 15/ 19 1006.3
27 SE WRIGHTSVLE 0300   45 64   20/ 19/ 23 1009.3
5 SE WRIGHTSVLE  0200   47 56   10/ 19/ 21 1007.4
225 S CAPE HAT   0250   70 69  210/ 23/ 29 1005.6   10/ 8
41 SE CHARLESTON 0250   55 69  330/ 19/ 23 1008.8    6/ 6   2/14

$$


USA.gov is the U.S. government's official web portal to all federal, state and local government web resources and services.